Starlink 11476

operational
NORAD ID: 62228 Int'l Des: 2024-231 Owner: SPXS Country: US Constellation: starlink
LEOCIRCULAR

Über Starlink 11476

Beschreibung wird geladen...

Live-Position

3D-Globus wird geladen...

Nächste Überflüge

Höhenverlauf

Altitude vs Time

uPlot chart will show altitude changes over time

Zweizeiliger Elementsatz

1 62228U 24231L 26036.26719730 .00242851 00000-0 19439-2 0 9994
2 62228 53.1560 260.7663 0001286 168.1065 191.9983 15.69800785 68335
Epoch: 5. Feb. 2026 • Age: 18 hours

Aktueller Status

Höhe 368.4 km
Geschwindigkeit 7.69 km/s
Subsatellitenpunkt -33.52°S, 31.94°W
Startdatum 5. Dez. 2024
Alter 1.1 years
Typ internet

Technische Details

Klassifizierung Payload
Masse 960.00 kg
Trockenmasse 910.00 kg
Gesamtmasse 960.00 kg
Länge 0.30 m
Durchmesser 4.10 m
Spannweite 29.00 m
Form Box + pan
Hersteller SPXS
Bus-Typ Starlink V2MD
Phasenstatus In Orbit
Besitzer/Staat SPXS/US

Große Konstellationen

Loading constellations...